Highgate, VT

1:13 PM EDT on July 24, 2017 (GMT -0400)
Franklin County State

Weather History for KFSO - February, 2013

Change the Weather History Date:

Saturday, February 16, 2013

  Actual Average (KPBG) Record (KPBG)
Temperature  
Mean Temperature 20 °F -  
Max Temperature 27 °F 29 °F 50 °F (1949)
Min Temperature 14 °F 10 °F -14 °F (2015)
Degree Days  
Heating Degree Days 44    
Moisture  
Dew Point 9 °F    
Average Humidity 61    
Maximum Humidity 82    
Minimum Humidity 51    
Precipitation  
Precipitation 0.00 in - - ()
Sea Level Pressure  
Sea Level Pressure 30.00 in    
Wind  
Wind Speed 4 mph (NW)    
Max Wind Speed 9 mph    
Max Gust Speed -    
Visibility 10 miles    
Events      
Averages and records for this station are not official NWS values.
T = Trace of Precipitation, MM = Missing Value Source: NWS Daily Summary

Daily Weather History Graph

Daily Weather History Graph

Search for Another Location

Airport or City:

Trip Planner

Search our weather history database for the weather conditions in past years. The results will help you decide how hot, cold, wet, or windy it might be!

Date:

Astronomy

Feb. 16, 2013 Rise Set
Actual Time 6:51 AM EST 5:22 PM EST
Civil Twilight 6:21 AM EST 5:52 PM EST
Nautical Twilight 5:46 AM EST 6:26 PM EST
Astronomical Twilight 5:13 AM EST 7:00 PM EST
Moon 9:43 AM EST (2/16) No Moon Set
Length of Visible Light 11h 31m
Length of Day
10h 30m
Waxing Crescent, 39% of the Moon is Illuminated
Feb 16
Waxing Crescent
Feb 17
First Quarter
Feb 25
Full
Mar 4
Last Quarter
Mar 11
New

Hourly Weather History & Observations

Time (EST) Temp. Windchill Dew Point Humidity Pressure Visibility Wind Dir Wind Speed Gust Speed Precip Events Conditions
12:15 AM 27.1 °F 21.8 °F 14.7 °F 60% 29.97 in 10.0 mi WSW 4.6 mph - N/A   Clear
12:35 AM 27.3 °F 23.4 °F 13.3 °F 56% 29.97 in 10.0 mi SSW 3.5 mph - N/A   Clear
12:55 AM 27.1 °F 20.7 °F 12.9 °F 55% 29.97 in 10.0 mi WSW 5.8 mph - N/A   Scattered Clouds
1:15 AM 27.3 °F 20.9 °F 12.2 °F 53% 29.97 in 10.0 mi WSW 5.8 mph - N/A   Mostly Cloudy
1:35 AM 27.1 °F 23.2 °F 13.6 °F 57% 29.98 in 10.0 mi WSW 3.5 mph - N/A   Overcast
1:55 AM 27.1 °F 23.2 °F 14.5 °F 59% 29.98 in 10.0 mi West 3.5 mph - N/A   Scattered Clouds
2:15 AM 27.1 °F 23.2 °F 14.9 °F 60% 29.99 in 10.0 mi WNW 3.5 mph - N/A   Mostly Cloudy
2:35 AM 27.1 °F - 14.9 °F 60% 29.98 in 10.0 mi Calm Calm - N/A   Overcast
2:55 AM 27.1 °F 20.7 °F 15.4 °F 61% 29.97 in 10.0 mi WNW 5.8 mph - N/A   Mostly Cloudy
3:15 AM 24.6 °F 17.7 °F 17.6 °F 75% 29.97 in 10.0 mi NNW 5.8 mph - N/A   Scattered Clouds
3:35 AM 23.4 °F 17.4 °F 17.6 °F 79% 29.98 in 10.0 mi NW 4.6 mph - N/A   Clear
3:55 AM 22.1 °F 15.9 °F 17.2 °F 82% 29.98 in 10.0 mi North 4.6 mph - N/A   Clear
4:15 AM 20.7 °F 14.2 °F 14.7 °F 78% 29.99 in 10.0 mi NW 4.6 mph - N/A   Scattered Clouds
4:35 AM 20.1 °F 13.6 °F 12.9 °F 74% 29.99 in 10.0 mi NW 4.6 mph - N/A   Scattered Clouds
4:55 AM 19.8 °F 14.7 °F 11.1 °F 69% 30.00 in 10.0 mi WNW 3.5 mph - N/A   Mostly Cloudy
5:15 AM 19.4 °F 12.8 °F 11.1 °F 70% 30.00 in 10.0 mi WNW 4.6 mph - N/A   Mostly Cloudy
5:35 AM 19.2 °F - 11.1 °F 71% 30.00 in 10.0 mi Calm Calm - N/A   Scattered Clouds
6:15 AM 19.0 °F 13.9 °F 10.0 °F 68% 30.01 in 10.0 mi NW 3.5 mph - N/A   Overcast
6:35 AM 18.5 °F 11.7 °F 9.9 °F 69% 30.01 in 10.0 mi WNW 4.6 mph - N/A   Overcast
7:15 AM 17.1 °F 10.0 °F 8.1 °F 68% 30.02 in 10.0 mi North 4.6 mph - N/A   Scattered Clouds
7:35 AM 17.1 °F 11.7 °F 8.1 °F 68% 30.03 in 10.0 mi NNW 3.5 mph - N/A   Scattered Clouds
7:55 AM 17.1 °F 11.7 °F 8.4 °F 69% 30.04 in 10.0 mi NNW 3.5 mph - N/A   Scattered Clouds
8:15 AM 17.1 °F 11.7 °F 8.4 °F 69% 30.04 in 10.0 mi WNW 3.5 mph - N/A   Clear
8:35 AM 17.8 °F 12.5 °F 7.7 °F 65% 30.05 in 10.0 mi North 3.5 mph - N/A   Clear
8:55 AM 18.3 °F - 7.9 °F 64% 30.05 in 10.0 mi Calm Calm - N/A   Clear
9:15 AM 18.5 °F 11.7 °F 7.9 °F 63% 30.05 in 10.0 mi NW 4.6 mph - N/A   Clear
9:35 AM 19.2 °F 12.5 °F 8.4 °F 63% 30.04 in 10.0 mi North 4.6 mph - N/A   Clear
9:55 AM 19.4 °F 11.5 °F 8.6 °F 63% 30.05 in 10.0 mi NNW 5.8 mph - N/A   Clear
10:15 AM 19.8 °F 14.7 °F 7.9 °F 60% 30.05 in 10.0 mi NW 3.5 mph - N/A   Clear
10:35 AM 19.4 °F 10.4 °F 7.9 °F 61% 30.05 in 10.0 mi North 6.9 mph - N/A   Clear
1:35 PM 22.1 °F 12.0 °F 8.1 °F 55% 30.02 in 10.0 mi North 9.2 mph - N/A   Clear
1:55 PM 22.1 °F 13.7 °F 7.5 °F 54% 30.01 in 10.0 mi North 6.9 mph - N/A   Clear
2:15 PM 22.1 °F 14.7 °F 7.3 °F 53% 30.01 in 10.0 mi North 5.8 mph - N/A   Clear
2:35 PM 22.6 °F 15.3 °F 7.3 °F 52% 30.01 in 10.0 mi North 5.8 mph - N/A   Clear
2:55 PM 22.3 °F 14.9 °F 6.4 °F 51% 30.00 in 10.0 mi NNW 5.8 mph - N/A   Clear
3:15 PM 22.1 °F 14.7 °F 6.6 °F 51% 30.00 in 10.0 mi North 5.8 mph - N/A   Clear
3:35 PM 22.1 °F 13.7 °F 6.8 °F 52% 30.00 in 10.0 mi North 6.9 mph - N/A   Clear
3:55 PM 22.1 °F 12.8 °F 7.3 °F 53% 30.00 in 10.0 mi North 8.1 mph - N/A   Clear
4:15 PM 21.2 °F 14.9 °F 6.8 °F 54% 30.01 in 10.0 mi NE 4.6 mph - N/A   Clear
4:35 PM 20.3 °F 15.4 °F 5.7 °F 53% 30.01 in 10.0 mi North 3.5 mph - N/A   Clear
4:55 PM 19.4 °F 12.8 °F 5.9 °F 56% 30.01 in 10.0 mi NE 4.6 mph - N/A   Clear
5:15 PM 19.2 °F - 6.3 °F 57% 30.01 in 10.0 mi Calm Calm - N/A   Clear
5:35 PM 18.5 °F - 5.9 °F 58% 30.01 in 10.0 mi Calm Calm - N/A   Clear
5:55 PM 18.3 °F - 5.9 °F 58% 30.00 in 10.0 mi Calm Calm - N/A   Clear
6:15 PM 18.3 °F - 5.9 °F 58% 30.01 in 10.0 mi Calm Calm - N/A   Clear
6:35 PM 18.1 °F - 6.4 °F 60% 30.02 in 10.0 mi Calm Calm - N/A   Clear
6:55 PM 17.6 °F - 5.9 °F 60% 30.02 in 10.0 mi Calm Calm - N/A   Clear
7:15 PM 18.0 °F 12.7 °F 5.9 °F 59% 30.01 in 10.0 mi NW 3.5 mph - N/A   Clear
7:35 PM 18.1 °F - 5.2 °F 57% 30.01 in 10.0 mi Calm Calm - N/A   Clear
7:55 PM 17.6 °F - 5.0 °F 58% 30.01 in 10.0 mi Calm Calm - N/A   Clear
8:15 PM 17.2 °F - 4.5 °F 57% 30.01 in 10.0 mi Calm Calm - N/A   Clear
8:35 PM 17.1 °F 11.7 °F 4.1 °F 57% 30.01 in 10.0 mi NNW 3.5 mph - N/A   Clear
8:55 PM 17.1 °F - 4.5 °F 58% 30.00 in 10.0 mi Calm Calm - N/A   Clear
9:15 PM 17.1 °F 10.0 °F 4.3 °F 57% 30.00 in 10.0 mi WNW 4.6 mph - N/A   Clear
9:35 PM 17.1 °F 10.0 °F 5.0 °F 59% 30.00 in 10.0 mi NW 4.6 mph - N/A   Clear
9:55 PM 16.0 °F 8.8 °F 4.1 °F 60% 29.99 in 10.0 mi NNW 4.6 mph - N/A   Clear
10:15 PM 15.3 °F 9.6 °F 4.1 °F 61% 29.99 in 10.0 mi NNW 3.5 mph - N/A   Clear
10:35 PM 14.9 °F 9.2 °F 4.1 °F 62% 29.97 in 10.0 mi NW 3.5 mph - N/A   Clear
10:55 PM 14.7 °F - 3.7 °F 62% 29.97 in 10.0 mi Calm Calm - N/A   Clear
11:15 PM 14.5 °F - 4.1 °F 63% 29.95 in 10.0 mi Calm Calm - N/A   Clear
11:35 PM 14.5 °F - 4.1 °F 63% 29.95 in 10.0 mi Calm Calm - N/A   Clear
11:55 PM 14.5 °F - 4.6 °F 65% 29.95 in 10.0 mi Calm Calm - N/A   Clear